Weather History for EGPF - October, 2011

Change the Weather History Date:

Monday, October 10, 2011

  Actual Average Record
Temperature  
Mean Temperature 52 °F -  
Max Temperature 53 °F 51 °F 62 °F (2005)
Min Temperature 50 °F 40 °F 26 °F (2012)
Degree Days  
Heating Degree Days 14    
Growing Degree Days 2 (Base 50)    
Moisture  
Dew Point 48 °F    
Average Humidity 89    
Maximum Humidity 100    
Minimum Humidity 72    
Precipitation  
Precipitation 0.00 in - - ()
Sea Level Pressure  
Sea Level Pressure 29.74 in    
Wind  
Wind Speed 9 mph ()    
Max Wind Speed 17 mph    
Max Gust Speed -    
Visibility 5.9 miles    
Events Rain    
Averages and records for this station are not official NWS values.
T = Trace of Precipitation, MM = Missing Value Source: Averaged Metar Reports

Daily Weather History Graph

Daily Weather History Graph

Search for Another Location

Airport or City:

Trip Planner

Search our weather history database for the weather conditions in past years. The results will help you decide how hot, cold, wet, or windy it might be!

Date:

Astronomy

Oct. 10, 2011 Rise Set
Actual Time 7:37 AM BST 6:30 PM BST
Civil Twilight 7:00 AM BST 7:07 PM BST
Nautical Twilight 6:17 AM BST 7:50 PM BST
Astronomical Twilight 5:34 AM BST 8:34 PM BST
Moon 5:30 PM BST (10/10) 5:58 AM BST (10/10)
Length of Visible Light 12h 07m
Length of Day
10h 53m
Waxing Gibbous, 98% of the Moon is Illuminated
Oct 10
Waxing Gibbous
Oct 12
Full
Oct 20
Last Quarter
Oct 26
New
Nov 2
First Quarter

Hourly Weather History & Observations

Time (BST) Temp. Dew Point Humidity Pressure Visibility Wind Dir Wind Speed Gust Speed Precip Events Conditions
12:20 AM 51.8 °F 50.0 °F 94% 29.74 in 6.2 mi SW 10.4 mph - N/A Rain Light Rain
12:50 AM 53.6 °F 50.0 °F 88% 29.74 in 5.6 mi WSW 11.5 mph - N/A Rain Light Rain
1:20 AM 51.8 °F 50.0 °F 94% 29.71 in 6.2 mi SW 9.2 mph - N/A Rain Light Rain
1:50 AM 51.8 °F 50.0 °F 94% 29.71 in 6.2 mi WSW 9.2 mph - N/A Rain Light Rain
2:20 AM 51.8 °F 50.0 °F 94% 29.71 in 5.6 mi WSW 5.8 mph - N/A Rain Light Rain
2:50 AM 51.8 °F 50.0 °F 94% 29.68 in 6.2 mi West 4.6 mph - N/A Rain Light Rain
3:20 AM 51.8 °F 50.0 °F 94% 29.68 in 5.6 mi WNW 8.1 mph - N/A Rain Light Rain
3:50 AM 50.0 °F 50.0 °F 100% 29.68 in 4.3 mi WNW 8.1 mph - N/A Rain Light Rain
4:20 AM 50.0 °F 50.0 °F 100% 29.68 in 6.2 mi WNW 6.9 mph - N/A Rain Light Rain
4:50 AM 50.0 °F 48.2 °F 94% 29.65 in 6.2 mi West 4.6 mph - N/A Rain Light Rain
5:20 AM 50.0 °F 50.0 °F 100% 29.65 in 6.2 mi NW 4.6 mph - N/A Rain Light Rain
5:50 AM 51.8 °F 50.0 °F 94% 29.65 in 6.2 mi West 8.1 mph - N/A Rain Light Rain
6:20 AM 51.8 °F 50.0 °F 94% 29.65 in 6.2 mi West 6.9 mph - N/A Rain Light Rain
6:50 AM 51.8 °F 50.0 °F 94% 29.65 in 6.2 mi WSW 6.9 mph - N/A Rain Light Rain
7:20 AM 51.8 °F 50.0 °F 94% 29.68 in 4.3 mi West 10.4 mph - N/A Rain Light Rain
7:50 AM 50.0 °F 48.2 °F 94% 29.68 in 6.2 mi WNW 8.1 mph - N/A Rain Light Rain
8:20 AM 50.0 °F 48.2 °F 94% 29.68 in 6.2 mi West 5.8 mph - N/A Rain Light Rain
8:50 AM 50.0 °F 48.2 °F 94% 29.71 in 6.2 mi West 8.1 mph - N/A Rain Light Rain
9:20 AM 50.0 °F 48.2 °F 94% 29.71 in 6.2 mi West 5.8 mph - N/A   Mostly Cloudy
9:50 AM 51.8 °F 48.2 °F 88% 29.71 in 6.2 mi West 9.2 mph - N/A   Mostly Cloudy
10:20 AM 51.8 °F 48.2 °F 88% 29.74 in 6.2 mi WSW 9.2 mph - N/A   Mostly Cloudy
10:50 AM 51.8 °F 48.2 °F 88% 29.74 in 6.2 mi SW 10.4 mph - N/A Rain Light Rain
11:20 AM 51.8 °F 48.2 °F 88% 29.77 in 6.2 mi WSW 8.1 mph - N/A   Mostly Cloudy
11:50 AM 51.8 °F 48.2 °F 88% 29.77 in 6.2 mi WSW 11.5 mph - N/A   Mostly Cloudy
12:20 PM 51.8 °F 48.2 °F 88% 29.77 in 6.2 mi WSW 11.5 mph - N/A   Mostly Cloudy
12:50 PM 53.6 °F 46.4 °F 77% 29.77 in 6.2 mi WSW 13.8 mph - N/A   Mostly Cloudy
1:20 PM 53.6 °F 46.4 °F 77% 29.77 in 6.2 mi West 15.0 mph - N/A   Mostly Cloudy
1:50 PM 53.6 °F 48.2 °F 82% 29.77 in 6.2 mi West 15.0 mph - N/A Rain Light Rain
2:20 PM 51.8 °F 48.2 °F 88% 29.80 in 6.2 mi West 12.7 mph - N/A   Scattered Clouds
2:50 PM 53.6 °F 48.2 °F 82% 29.80 in 6.2 mi West 15.0 mph - N/A   Scattered Clouds
3:20 PM 53.6 °F 48.2 °F 82% 29.80 in 6.2 mi West 15.0 mph - N/A   Scattered Clouds
3:50 PM 53.6 °F 46.4 °F 77% 29.80 in 6.2 mi West 16.1 mph - N/A   Scattered Clouds
4:20 PM 53.6 °F 46.4 °F 77% 29.80 in 6.2 mi West 16.1 mph - N/A   Partly Cloudy
4:50 PM 53.6 °F 44.6 °F 72% 29.80 in 6.2 mi West 17.3 mph - N/A   Partly Cloudy
5:20 PM 53.6 °F 46.4 °F 77% 29.80 in 6.2 mi West 15.0 mph - N/A   Scattered Clouds
5:50 PM 51.8 °F 46.4 °F 82% 29.80 in 6.2 mi WSW 13.8 mph - N/A   Mostly Cloudy
6:20 PM 51.8 °F 46.4 °F 82% 29.80 in 6.2 mi WSW 16.1 mph - N/A   Mostly Cloudy
6:50 PM 51.8 °F 46.4 °F 82% 29.80 in 3.7 mi WSW 13.8 mph - N/A   Mostly Cloudy
7:20 PM 51.8 °F 46.4 °F 82% 29.80 in 6.2 mi SW 13.8 mph - N/A Rain Light Rain
7:50 PM 50.0 °F 48.2 °F 94% 29.80 in 3.7 mi West 11.5 mph - N/A Rain Light Rain
8:20 PM 50.0 °F 48.2 °F 94% 29.80 in 6.2 mi WSW 8.1 mph - N/A Rain Light Rain
8:50 PM 50.0 °F 48.2 °F 94% 29.80 in 3.7 mi WSW 5.8 mph - N/A Rain Light Rain
9:20 PM 50.0 °F 48.2 °F 94% 29.80 in 6.2 mi WSW 8.1 mph - N/A Rain Light Rain
9:50 PM 51.8 °F 48.2 °F 88% 29.77 in 6.2 mi SW 16.1 mph - N/A Rain Light Rain
10:20 PM 51.8 °F 48.2 °F 88% 29.77 in 6.2 mi SW 17.3 mph - N/A Rain Light Rain
10:50 PM 51.8 °F 46.4 °F 82% 29.77 in 6.2 mi SW 16.1 mph - N/A Rain Light Rain
11:20 PM 50.0 °F 46.4 °F 87% 29.77 in 6.2 mi SW 12.7 mph - N/A   Mostly Cloudy
11:50 PM 51.8 °F 48.2 °F 88% 29.77 in 6.2 mi SW 12.7 mph - N/A Rain Light Rain